889  
ASUS45 KPSR 231010  
RWRAZ  
 
ARIZONA HOURLY REGIONAL WEATHER ROUNDUP  
NATIONAL WEATHER SERVICE PHOENIX AZ  
300 AM MST SAT JUN 23 2018  
 
NOTE: FAIR INDICATES FEW OR NO CLOUDS BELOW 12,000 FEET WITH NO  
SIGNIFICANT WEATHER AND/OR S TO VISIBILITY
.  
 
AZZ001>003-036-231100-  
NORTHWEST ARIZONA  
 
CITY SKY/WX TMP DP RH WIND PRES REMARKS
 
BULLHEAD CITY CLEAR 86 16 7 CALM 29.61S  
KINGMAN CLEAR 77 15 9 SE9 29.84S  

 
 
AZZ004>008-015-016-018-231100-  
NORTH CENTRAL ARIZONA  
 
CITY SKY/WX TMP DP RH WIND PRES REMARKS
 
GRAND CANYON PTCLDY 47 25 42 CALM 30.12S  
WILLIAMS CLEAR 52 12 20 S10 30.11S  
PRESCOTT CLEAR 68 23 18 S7 29.99F  
FLAGSTAFF CLEAR 48 21 34 CALM 30.14F  
PAYSON CLEAR 68 23 18 N3 30.01S  
PAGE PTCLDY 75 21 13 CALM 29.90S  

 
 
AZZ009>014-017-231100-  
NORTHEAST ARIZONA  
 
CITY SKY/WX TMP DP RH WIND PRES REMARKS
 
WINSLOW CLEAR 68 22 17 W9 29.96S  
SAINT JOHNS CLEAR 68 21 16 SW8 30.01S  
WINDOW ROCK PTCLDY 47 14 26 CALM 30.11R  
SHOW LOW CLEAR 68 23 18 S13 30.10S  

 
 
AZZ540-542>544-546-548-231100-  
GREATER PHOENIX AREA  
 
CITY SKY/WX TMP DP RH WIND PRES REMARKS
 
PHOENIX CLEAR 90 44 20 CALM 29.68R  
BUCKEYE CLEAR 84 41 21 NW6 29.69S  
LUKE AFB CLEAR 87 41 19 SW7 29.66S  
DEER VALLEY CLEAR 85 40 20 SE3 29.71R  
SCOTTSDALE CLEAR 86 45 23 CALM 29.73R  
MESA-GATEWAY CLEAR 81 40 22 SE10 29.73S  

 
 
AZZ539-553-231100-  
SOUTHWEST MARICOPA COUNTY AND PINAL COUNTY  
 
CITY SKY/WX TMP DP RH WIND PRES REMARKS
 
CASA GRANDE CLEAR 80 42 25 N5 29.74R  
GILA BEND FAIR 80 44 28 SE6 29.67S  

 
 
AZZ503-504-507>509-231100-  
SOUTHEAST ARIZONA  
 
CITY SKY/WX TMP DP RH WIND PRES REMARKS
 
TUCSON CLEAR 78 41 26 S6 29.85R  
DAVIS-MONTHAN CLEAR 76 41 28 S3 29.83S  
NOGALES CLEAR 73 40 30 S6 29.97R  
SIERRA VISTA CLEAR 70 29 22 W10 30.01S  
DOUGLAS CLEAR 66 28 24 E7 29.96R  
SAFFORD CLEAR 77 25 14 SW5 29.83R  

 
 
AZZ532-231100-  
SOUTHWEST ARIZONA  
 
CITY SKY/WX TMP DP RH WIND PRES REMARKS
 
YUMA NOT AVBL  

 
 
CAZ041-043-047-048-061-525>527-560>570-231100-  
SOUTHERN CALIFORNIA  
 
CITY SKY/WX TMP DP RH WIND PRES REMARKS
 
DOWNTOWN L.A. CLOUDY 65 60 84 SE5 29.80F  
L.A. AIRPORT CLOUDY 64 60 87 SE5 29.81S  
SAN DIEGO CLOUDY 64 59 83 SW6 29.83F  
BURBANK CLOUDY 62 61 96 SE6 29.80F FOG  
ONTARIO CLOUDY 63 59 87 W8 29.81S FOG  
RIVERSIDE CLEAR 62 60 93 W5 29.81S  
PALM SPRINGS CLEAR 86 54 33 E5 29.65S  
EL CENTRO NAS CLEAR 73 56 54 S5 29.61S  
IMPERIAL CLEAR 77 64 64 SE9 29.59F  
BLYTHE CLEAR 88 44 21 S10 29.61F  
NEEDLES CLEAR 93 13 5 CALM 29.63R  

 
 
NVZ020-UTZ003-231100-  
SOUTHERN NEVADA-UTAH  
 
CITY SKY/WX TMP DP RH WIND PRES REMARKS
 
LAS VEGAS CLEAR 88 17 7 S7 29.69S  
SALT LAKE CITY CLEAR 68 41 37 S10 29.90F  

 
 
NMZ009-TXZ055-231100-  
NEW MEXICO-WEST TEXAS  
 
CITY SKY/WX TMP DP RH WIND PRES REMARKS
 
ALBUQUERQUE PTCLDY 70 21 15 SE5 29.96R  
EL PASO CLEAR 85 13 7 E8 29.83R  

 
 
   
.......................KEY.....................
 
 
SKY/WX - SKY CONDITION/WEATHER  
TMP - TEMPERATURE IN FAHRENHEIT  
DP - DEW POINT IN FAHRENHEIT  
RH - RELATIVE HUMIDITY IN PERCENT  
WIND - DIRECTION AND SPEED IN MILES PER HOUR (MPH)  
VRB - VARIABLE WIND DIRECTION  
PRES - MEAN SEA LEVEL PRESSURE IN INCHES OF MERCURY  
F - FALLING PRESSURE R - RISING PRESSURE  
S - STEADY PRESSURE  
VSB - VISIBILITY IN MILES  
HX - HEAT INDEX IN FAHRENHEIT  
WCI - WIND CHILL INDEX IN FAHRENHEIT  
TC - TEMPERATURE IN CELSIUS WHICH IS ALSO KNOWN AS  
TEMPERATURE IN CENTIGRADE  
AFB - AIR FORCE BASE  
LUKE AFB IS LUKE AIR FORCE BASE  
DAVIS-MONTHAN IS DAVIS-MONTHAN AIR FORCE BASE  
NAS - NAVAL AIR STATION  
EL CENTRO NAS IS EL CENTRO NAVAL AIR STATION  
N/A - NOT AVAILABLE  
 
 
 
CLICK HERE TO GO TO PREVIOUS BULLETINS.

The Nexlab AZ Page Main Text Page